Date,TemperatureHighF,TemperatureAvgF,TemperatureLowF,DewpointHighF,DewpointAvgF,DewpointLowF,HumidityHigh,HumidityAvg,HumidityLow,PressureMaxIn,PressureMinIn,WindSpeedMaxMPH,WindSpeedAvgMPH,GustSpeedMaxMPH,PrecipitationSumIn
2013-1-1,23,22,21,23,22,20,99,98,97,0.00,40.00,10,5,13,0.00
2013-1-2,23,22,21,23,22,21,100,98,94,0.00,40.00,21,15,24,0.00
2013-1-3,23,22,21,22,20,17,99,91,84,0.00,40.00,18,10,22,0.00
2013-1-4,29,22,20,22,20,18,99,90,74,0.00,40.00,15,6,16,0.00
2013-1-5,25,24,22,25,23,22,100,99,97,0.00,40.00,9,5,12,0.00
2013-1-6,37,29,21,34,28,21,100,97,78,0.00,40.00,8,3,11,0.00
2013-1-7,45,39,33,42,37,33,100,94,82,0.00,40.00,44,19,55,0.00
2013-1-8,48,41,36,45,39,36,100,93,70,0.00,40.00,25,9,30,0.00
2013-1-9,44,37,30,40,36,30,100,93,77,0.00,40.00,32,17,39,0.00
2013-1-10,35,31,29,30,28,25,100,91,73,0.00,40.00,34,24,42,0.00
2013-1-11,35,29,24,28,22,15,97,76,52,0.00,40.00,25,9,31,0.00
2013-1-12,32,24,20,25,22,19,100,92,64,0.00,40.00,12,7,17,0.00
2013-1-13,25,21,18,25,21,18,100,98,94,0.00,40.00,6,3,6,0.00
2013-1-14,35,27,19,31,25,18,100,91,70,0.00,40.00,45,22,59,0.00
2013-1-15,40,32,30,34,32,30,100,97,77,0.00,40.00,27,11,33,0.00
2013-1-16,31,28,24,31,28,24,100,100,100,0.00,40.00,15,8,19,0.00
2013-1-17,26,24,23,26,24,23,100,100,100,0.00,40.00,5,2,6,0.00
2013-1-18,33,27,23,33,27,22,100,100,99,0.00,40.00,11,2,12,0.00
2013-1-19,26,24,23,26,24,23,100,100,100,0.00,40.00,11,4,13,0.00
2013-1-20,24,23,22,24,23,22,100,100,99,0.00,40.00,2,1,2,0.00
2013-1-21,24,22,21,24,22,21,100,99,99,0.00,40.00,0,0,0,0.00
2013-1-22,22,22,21,22,22,20,99,99,99,0.00,40.00,0,0,0,0.00
2013-1-23,29,23,20,29,23,20,100,99,99,0.00,40.00,14,0,17,0.00
2013-1-24,32,30,28,32,30,28,100,100,100,0.00,40.00,16,6,18,0.00
2013-1-25,38,34,30,38,34,30,100,100,100,0.00,40.00,12,3,15,0.00
2013-1-26,37,34,31,37,34,31,100,100,98,0.00,40.00,18,10,23,0.00
2013-1-27,37,33,32,35,32,32,100,98,89,0.00,40.00,22,14,27,0.00
2013-1-28,39,35,32,36,34,32,100,96,79,0.00,40.00,29,19,36,0.00
2013-1-29,41,39,35,38,36,34,97,91,78,0.00,40.00,39,29,46,0.00
2013-1-30,44,41,38,42,40,37,100,97,89,0.00,40.00,33,23,37,0.00
2013-1-31,47,42,40,40,39,37,100,87,72,0.00,40.00,29,20,37,0.00
2013-2-1,50,42,36,42,37,33,100,85,58,0.00,40.00,22,9,27,0.00
2013-2-2,45,38,34,38,35,32,97,88,74,0.00,40.00,12,7,17,0.00
2013-2-3,42,38,32,40,36,32,100,91,80,0.00,40.00,37,21,43,0.00
2013-2-4,49,42,38,38,35,32,94,78,56,0.00,40.00,29,11,32,0.00
2013-2-5,47,39,36,41,37,34,100,91,69,0.00,40.00,26,15,34,0.00
2013-2-6,46,40,36,38,36,34,96,87,67,0.00,40.00,14,6,20,0.00
2013-2-7,41,36,31,37,32,29,100,87,66,0.00,40.00,24,16,32,0.00
2013-2-8,41,33,27,31,29,27,100,87,62,0.00,40.00,25,18,31,0.00
2013-2-9,33,33,32,30,29,28,90,85,82,0.00,40.00,28,25,33,0.00
2013-2-10,33,33,33,29,29,29,84,84,84,0.00,40.00,25,25,25,0.00
2013-2-11,33,33,33,29,29,29,84,84,84,0.00,40.00,25,25,25,0.00
2013-2-12,33,33,33,29,29,29,84,84,84,0.00,40.00,25,25,25,0.00
2013-2-13,46,37,0,37,31,-72,86,80,64,0.00,40.00,33,25,41,0.00
2013-2-14,48,41,37,39,37,34,96,85,70,0.00,40.00,31,19,38,0.00
2013-2-15,50,41,35,40,38,35,100,88,67,0.00,40.00,11,7,16,0.00
2013-2-16,45,39,34,41,36,30,100,90,73,0.00,40.00,38,19,47,0.00
2013-2-17,40,36,32,33,27,25,89,71,58,0.00,40.00,38,25,50,0.00
2013-2-18,39,34,30,30,28,25,93,77,62,0.00,40.00,16,6,22,0.00
2013-2-19,45,36,29,32,28,25,94,74,49,0.00,40.00,15,4,16,0.00
2013-2-20,41,35,30,35,32,30,100,92,71,0.00,40.00,23,16,30,0.00
2013-2-21,39,35,32,36,34,30,100,95,72,0.00,40.00,26,13,35,0.00
2013-2-22,39,37,33,39,35,28,100,93,76,0.00,40.00,37,15,45,0.00
2013-2-23,39,35,31,32,30,27,100,82,65,0.00,40.00,40,29,52,0.00
2013-2-24,43,36,32,33,30,28,95,81,60,0.00,40.00,27,14,36,0.00
2013-2-25,41,35,19,37,33,8,100,91,59,0.00,40.00,33,17,41,0.00
2013-2-26,41,36,32,34,32,26,99,84,59,0.00,40.00,28,12,37,0.00
2013-2-27,48,40,34,40,35,32,97,84,57,0.00,40.00,14,7,17,0.00
2013-2-28,49,44,40,47,43,40,100,98,87,0.00,40.00,17,6,21,0.00
2013-3-1,53,48,44,49,46,43,100,95,79,0.00,40.00,20,12,25,0.00
2013-3-2,48,44,38,46,43,32,100,95,81,0.00,40.00,34,17,40,0.00
2013-3-3,42,37,31,33,27,24,87,67,51,0.00,40.00,34,22,44,0.00
2013-3-4,46,36,27,29,23,17,94,63,33,0.00,40.00,19,9,24,0.00
2013-3-5,41,36,31,34,25,18,100,67,45,0.00,40.00,14,6,17,0.00
2013-3-6,37,34,32,36,34,32,100,99,92,0.00,40.00,17,6,21,0.00
2013-3-7,49,39,33,40,32,26,100,78,45,0.00,40.00,15,5,22,0.00
2013-3-8,51,40,30,37,31,28,95,72,44,0.00,40.00,13,7,15,0.00
2013-3-9,36,32,31,32,31,31,100,97,81,0.00,40.00,17,16,18,0.00
2013-3-10,31,31,31,31,31,31,100,100,100,0.00,40.00,16,16,16,0.00
2013-3-11,49,40,0,44,37,-71,100,92,71,0.00,40.00,18,14,22,0.00
2013-3-12,53,47,44,48,45,41,100,92,77,0.00,40.00,30,16,38,0.00
2013-3-13,59,50,43,45,43,41,95,77,55,0.00,40.00,22,12,26,0.00
2013-3-14,58,49,44,46,42,37,95,77,52,0.00,40.00,35,17,42,0.00
2013-3-15,54,48,44,47,44,41,100,85,69,0.00,40.00,26,16,33,0.00
2013-3-16,47,42,32,44,40,31,100,92,66,0.00,40.00,42,19,54,0.00
2013-3-17,40,34,31,32,30,27,100,84,63,0.00,40.00,42,23,54,0.00
2013-3-18,44,38,32,34,31,29,94,78,56,0.00,40.00,37,20,47,0.00
2013-3-19,43,36,30,35,30,26,96,79,56,0.00,40.00,15,6,16,0.00
2013-3-20,48,38,32,41,35,28,100,90,52,0.00,40.00,35,15,51,0.00
2013-3-21,40,33,31,33,31,27,100,89,70,0.00,40.00,29,18,40,0.00
2013-3-22,40,33,29,29,27,25,97,78,57,0.00,40.00,34,23,41,0.00
2013-3-23,44,35,29,31,26,19,99,74,39,0.00,40.00,21,8,24,0.00
2013-3-24,46,38,30,30,25,21,89,62,38,0.00,40.00,10,5,15,0.00
2013-3-25,53,43,35,32,25,-100,61,49,38,0.00,40.00,12,6,17,0.00
2013-3-26,52,42,38,38,32,25,78,66,46,0.00,40.00,10,5,11,0.00
2013-3-27,59,51,46,45,41,38,93,69,47,0.00,40.00,16,5,19,0.00
2013-3-28,58,49,42,48,43,39,100,83,49,0.00,40.00,17,8,19,0.00
2013-3-29,64,53,46,50,44,41,92,71,47,0.00,40.00,19,9,21,0.00
2013-3-30,66,53,43,47,41,-100,89,67,41,0.00,40.00,12,8,16,0.00
2013-3-31,67,58,48,45,38,31,69,48,34,0.00,40.00,22,6,26,0.00
2013-4-1,58,53,49,49,46,43,90,78,65,0.00,40.00,43,31,51,0.00
2013-4-2,57,51,46,47,44,-100,94,78,60,0.00,40.00,37,26,46,0.00
2013-4-3,63,53,42,52,45,42,100,75,49,0.00,40.00,20,9,27,0.00
2013-4-4,54,52,50,51,46,41,96,79,66,0.00,40.00,25,10,35,0.00
2013-4-5,54,49,45,47,44,40,97,82,65,0.00,40.00,25,16,37,0.00
2013-4-6,48,43,38,44,41,37,100,90,76,0.00,40.00,28,15,37,0.00
2013-4-7,45,40,36,42,38,35,100,93,77,0.00,40.00,40,18,56,0.00
2013-4-8,48,41,35,38,36,32,95,81,64,0.00,40.00,39,29,48,0.00
2013-4-9,56,44,36,41,37,34,99,76,51,0.00,40.00,24,15,28,0.00
2013-4-10,52,46,41,48,39,31,100,75,60,0.00,40.00,46,22,55,0.00
2013-4-11,50,43,38,37,34,32,83,72,55,0.00,40.00,51,29,59,0.00
2013-4-12,48,41,32,40,36,32,100,82,57,0.00,40.00,33,16,41,0.00
2013-4-13,44,37,31,40,32,26,100,83,52,0.00,40.00,50,28,61,0.00
2013-4-14,47,39,34,34,32,27,97,78,46,0.00,40.00,31,19,38,0.00
2013-4-15,46,38,34,38,34,30,100,86,58,0.00,40.00,21,14,23,0.00
2013-4-16,50,40,33,37,33,21,100,78,39,0.00,40.00,19,9,22,0.00
2013-4-17,54,42,31,35,32,27,100,71,36,0.00,40.00,28,17,33,0.00
2013-4-18,51,45,40,44,37,34,96,74,61,0.00,40.00,35,22,39,0.00
2013-4-19,54,47,44,47,44,41,100,91,70,0.00,40.00,41,23,50,0.00
2013-4-20,50,46,43,43,40,37,97,78,61,0.00,40.00,40,28,48,0.00
2013-4-21,48,44,41,41,39,37,91,83,69,0.00,40.00,36,23,43,0.00
2013-4-22,56,46,36,40,31,15,100,60,27,0.00,40.00,20,9,23,0.00
2013-4-23,62,48,34,36,24,14,70,41,24,0.00,40.00,13,6,18,0.00
2013-4-24,70,56,42,33,26,15,48,32,23,0.00,40.00,15,5,18,0.00
2013-4-25,69,58,46,40,36,32,65,46,32,0.00,40.00,33,22,39,0.00
2013-4-26,73,62,49,45,37,29,78,44,22,0.00,40.00,28,18,32,0.00
2013-4-27,65,57,50,41,34,25,66,43,21,0.00,40.00,32,19,41,0.00
2013-4-28,57,51,45,47,41,35,99,69,44,0.00,40.00,27,18,37,0.00
2013-4-29,53,53,53,36,36,36,53,53,53,0.00,40.00,20,20,20,0.00
2013-4-30,53,46,38,36,29,25,73,51,39,0.00,40.00,30,24,43,0.00
2013-5-1,61,47,32,35,29,17,95,53,21,0.00,40.00,19,9,22,0.00
2013-5-2,72,58,45,39,26,15,49,30,19,0.00,40.00,12,5,18,0.00
2013-5-3,75,61,47,45,38,30,71,43,27,0.00,40.00,22,10,24,0.00
2013-5-4,72,65,54,40,31,25,53,29,18,0.00,40.00,26,14,36,0.00
2013-5-5,76,66,55,39,34,28,38,29,22,0.00,40.00,21,11,29,0.00
2013-5-6,82,68,54,49,40,31,52,36,19,0.00,40.00,24,10,27,0.00
2013-5-7,73,65,53,49,46,45,75,52,38,0.00,40.00,40,26,45,0.00
2013-5-8,73,73,73,47,47,47,39,39,39,0.00,40.00,21,21,21,0.00
2013-5-9,73,73,73,47,47,47,39,39,39,0.00,40.00,21,21,21,0.00
2013-5-10,83,73,68,49,42,-100,44,35,23,0.00,40.00,28,21,34,0.00
2013-5-11,82,70,59,52,48,-100,70,48,28,0.00,40.00,29,18,35,0.00
2013-5-12,68,62,55,56,53,49,85,73,53,0.00,40.00,33,25,41,0.00
2013-5-13,66,54,47,54,49,38,97,82,49,0.00,40.00,31,18,41,0.00
2013-5-14,61,51,41,40,34,25,93,56,26,0.00,40.00,28,18,32,0.00
2013-5-15,55,50,46,46,40,32,93,69,48,0.00,40.00,24,18,29,0.00
2013-5-16,68,50,44,51,28,-100,99,76,42,0.00,40.00,29,14,35,0.00
2013-5-17,59,51,33,45,39,-100,93,72,47,0.00,40.00,31,24,37,0.00
2013-5-18,47,47,47,43,43,43,84,84,84,0.00,40.00,20,20,20,0.00
2013-5-19,47,47,47,43,43,43,84,84,84,0.00,40.00,20,20,20,0.00
2013-5-20,74,56,47,44,42,38,84,65,29,0.00,40.00,20,17,22,0.00
2013-5-21,65,53,37,42,40,36,100,64,42,0.00,40.00,35,22,46,0.00
2013-5-22,42,39,37,41,38,35,100,96,88,0.00,40.00,21,9,27,0.00
2013-5-23,49,43,37,44,41,37,100,93,73,0.00,40.00,18,10,20,0.00
2013-5-24,54,46,41,44,41,-100,100,86,61,0.00,40.00,31,16,38,0.00
2013-5-25,60,51,42,46,43,40,100,76,51,0.00,40.00,25,15,31,0.00
2013-5-26,59,52,47,50,47,44,100,82,61,0.00,40.00,30,17,37,0.00
2013-5-27,57,49,45,54,48,43,100,97,86,0.00,40.00,23,10,26,0.00
2013-5-28,58,51,45,50,46,44,99,84,64,0.00,40.00,35,20,40,0.00
2013-5-29,54,49,45,52,47,42,100,93,81,0.00,40.00,29,14,37,0.00
2013-5-30,57,48,42,45,41,-100,99,79,52,0.00,40.00,34,24,39,0.00
2013-5-31,65,54,44,45,42,37,95,67,38,0.00,40.00,26,15,32,0.00
2013-6-1,69,58,47,49,46,43,92,65,44,0.00,40.00,29,18,34,0.00
2013-6-2,67,58,49,50,47,42,98,68,44,0.00,40.00,33,22,41,0.00
2013-6-3,65,58,47,49,47,44,99,69,50,0.00,40.00,25,14,29,0.00
2013-6-4,65,65,65,47,47,47,52,52,52,0.00,40.00,11,11,11,0.00
2013-6-5,65,65,65,47,47,47,52,52,52,0.00,40.00,11,11,11,0.00
2013-6-6,65,65,65,47,47,47,52,52,52,0.00,40.00,11,11,11,0.00
2013-6-7,65,65,65,47,47,47,52,52,52,0.00,40.00,11,11,11,0.00
2013-6-8,65,65,65,47,47,47,52,52,52,0.00,40.00,11,11,11,0.00
2013-6-9,65,65,65,47,47,47,52,52,52,0.00,40.00,11,11,11,0.00
2013-6-10,65,65,65,47,47,47,52,52,52,0.00,40.00,11,11,11,0.00
2013-6-11,65,57,50,47,43,38,75,59,51,0.00,40.00,35,20,45,0.00
2013-6-12,63,54,49,43,41,36,79,64,38,0.00,40.00,35,25,43,0.00
2013-6-13,59,51,45,47,44,41,96,76,52,0.00,40.00,37,24,48,0.00
2013-6-14,67,56,46,47,43,40,88,65,38,0.00,40.00,28,19,36,0.00
2013-6-15,80,65,49,50,44,34,83,52,20,0.00,40.00,25,11,31,0.00
2013-6-16,72,63,55,53,49,45,82,61,39,0.00,40.00,35,24,44,0.00
2013-6-17,73,62,54,52,47,-100,88,61,35,0.00,40.00,30,22,37,0.00
2013-6-18,67,57,50,48,42,-100,86,61,33,0.00,40.00,32,22,40,0.00
2013-6-19,61,54,49,47,43,39,87,68,44,0.00,40.00,36,28,47,0.00
2013-6-20,60,51,47,46,45,43,90,79,57,0.00,40.00,29,18,36,0.00
2013-6-22,64,64,64,44,44,44,46,46,46,0.00,40.00,21,21,21,0.00
2013-6-23,64,64,64,44,44,44,46,46,46,0.00,40.00,21,21,21,0.00
2013-6-24,63,56,52,51,47,-100,91,76,57,0.00,40.00,23,15,28,0.00
2013-6-25,64,56,52,57,52,49,96,88,71,0.00,40.00,19,7,24,0.00
2013-6-26,66,60,54,57,52,50,94,76,57,0.00,40.00,24,11,30,0.00
2013-6-27,78,65,56,58,52,-100,92,68,45,0.00,40.00,21,10,26,0.00
2013-6-28,92,75,60,59,55,-100,85,55,29,0.00,40.00,22,10,26,0.00
2013-6-29,85,74,65,61,57,51,81,57,33,0.00,40.00,28,23,33,0.00
2013-6-30,96,81,63,59,54,50,72,43,21,0.00,40.00,19,10,21,0.00
2013-7-1,96,80,67,64,60,53,84,52,24,0.00,40.00,31,13,43,0.00
2013-7-2,90,77,70,64,59,47,76,56,28,0.00,40.00,38,28,49,0.00
2013-7-4,77,77,77,44,44,44,30,30,30,0.00,40.00,26,26,26,0.00
2013-7-5,77,77,77,44,44,44,30,30,30,0.00,40.00,26,26,26,0.00
2013-7-6,77,77,77,44,44,44,30,30,30,0.00,40.00,26,26,26,0.00
2013-7-7,77,77,77,44,44,44,30,30,30,0.00,40.00,26,26,26,0.00
2013-7-8,77,58,77,44,8,-100,30,30,30,0.00,40.00,26,26,26,0.00
2013-7-10,81,71,62,52,42,-100,53,37,26,0.00,40.00,40,28,46,0.00
2013-7-11,72,61,50,45,41,35,75,49,28,0.00,40.00,40,30,46,0.00
2013-7-12,70,58,50,47,44,38,83,61,33,0.00,40.00,33,25,40,0.00
2013-7-15,90,79,62,44,39,35,47,24,14,0.00,40.00,18,10,21,0.00
2013-7-16,88,77,65,52,40,32,50,27,17,0.00,40.00,26,11,31,0.00
2013-7-17,77,66,58,54,49,35,83,57,22,0.00,40.00,39,31,48,0.00
2013-7-18,86,70,55,52,47,34,85,48,17,0.00,40.00,31,23,39,0.00
2013-7-19,86,71,58,58,51,43,82,54,22,0.00,40.00,31,23,37,0.00
2013-7-20,81,68,57,57,53,-100,93,62,33,0.00,40.00,33,24,42,0.00
2013-7-21,83,69,56,54,51,47,88,56,28,0.00,40.00,37,27,44,0.00
2013-7-22,83,71,59,54,50,44,79,51,25,0.00,40.00,35,26,41,0.00
2013-7-23,88,72,60,56,50,40,76,50,18,0.00,40.00,30,22,35,0.00
2013-7-24,87,74,61,57,49,36,79,45,17,0.00,40.00,33,26,38,0.00
2013-7-25,88,75,61,54,48,39,76,41,22,0.00,40.00,33,24,38,0.00
2013-7-26,88,73,60,54,50,38,73,47,17,0.00,40.00,37,26,45,0.00
2013-7-27,78,67,55,48,42,37,66,42,23,0.00,40.00,41,29,47,0.00
2013-7-28,71,62,53,49,46,40,82,57,32,0.00,40.00,43,34,52,0.00
2013-7-29,77,63,51,49,46,38,89,59,24,0.00,40.00,39,26,47,0.00
2013-7-30,81,69,56,54,48,35,90,52,21,0.00,40.00,30,23,34,0.00
2013-7-31,81,68,60,57,52,45,78,56,29,0.00,40.00,34,18,38,0.00
2013-8-1,65,60,55,55,52,51,89,76,60,0.00,40.00,44,35,52,0.00
2013-8-2,65,59,53,52,50,48,89,72,56,0.00,40.00,36,30,42,0.00
2013-8-3,82,67,53,55,52,49,96,61,32,0.00,40.00,24,12,28,0.00
2013-8-4,91,73,58,56,52,43,86,53,21,0.00,40.00,20,10,22,0.00
2013-8-5,86,74,61,58,54,46,86,53,25,0.00,40.00,26,19,32,0.00
2013-8-6,87,74,60,58,49,33,86,46,20,0.00,40.00,31,21,38,0.00
2013-8-7,88,73,60,51,47,33,70,41,21,0.00,40.00,40,28,46,0.00
2013-8-8,79,69,59,58,54,50,79,61,41,0.00,40.00,34,24,40,0.00
2013-8-9,83,70,61,61,57,51,95,66,34,0.00,40.00,27,18,31,0.00
2013-8-10,75,66,59,60,58,56,96,78,52,0.00,40.00,32,21,40,0.00
2013-8-11,75,66,60,58,54,47,86,66,37,0.00,40.00,31,24,35,0.00
2013-8-12,78,65,56,55,53,49,95,69,38,0.00,40.00,30,21,36,0.00
2013-8-13,86,68,56,54,45,-100,90,55,17,0.00,40.00,29,19,34,0.00
2013-8-14,80,69,61,51,44,-100,62,43,31,0.00,40.00,31,21,39,0.00
2013-8-15,78,57,62,59,29,-100,73,53,42,0.00,40.00,32,20,40,0.00
2013-8-16,78,65,64,61,50,-100,86,69,49,0.00,40.00,22,17,30,0.00
2013-8-19,80,64,65,54,22,-100,64,38,29,0.00,40.00,37,26,42,0.00
2013-8-20,80,65,55,53,46,-100,88,58,22,0.00,40.00,30,20,36,0.00
2013-8-21,90,72,56,50,42,33,71,40,14,0.00,40.00,15,10,20,0.00
2013-8-22,78,69,65,56,41,-100,62,39,24,0.00,40.00,26,10,33,0.00
2013-8-23,70,64,60,59,56,51,93,77,50,0.00,40.00,30,24,37,0.00
2013-8-26,72,65,56,61,54,48,97,68,52,0.00,40.00,26,12,29,0.00
2013-8-27,74,58,54,52,51,50,86,78,43,0.00,40.00,16,7,18,0.00
2013-8-28,79,74,67,58,55,54,68,52,41,0.00,40.00,27,16,31,0.00
2013-8-29,74,67,63,60,57,56,82,69,57,0.00,40.00,25,18,33,0.00
2013-8-30,76,67,60,58,55,49,94,69,40,0.00,40.00,23,19,27,0.00
2013-8-31,87,69,56,54,45,-100,85,51,21,0.00,40.00,16,8,18,0.00
2013-9-1,83,72,60,56,53,50,83,55,31,0.00,40.00,32,17,39,0.00
2013-9-2,79,69,61,54,52,50,71,56,36,0.00,40.00,34,25,39,0.00
2013-9-3,76,68,61,54,52,49,73,58,38,0.00,40.00,31,22,36,0.00
2013-9-4,74,65,58,56,53,51,86,67,46,0.00,40.00,33,21,40,0.00
2013-9-5,70,62,54,56,54,52,95,76,59,0.00,40.00,37,25,47,0.00
2013-9-6,63,57,53,57,53,52,97,89,67,0.00,40.00,29,12,35,0.00
2013-9-9,83,75,61,60,55,49,88,54,32,0.00,40.00,22,15,25,0.00
2013-9-10,90,75,60,60,52,43,91,52,20,0.00,40.00,17,11,23,0.00
2013-9-11,92,85,73,50,47,44,42,27,19,0.00,40.00,11,8,16,0.00
2013-9-12,91,72,60,60,53,47,83,55,23,0.00,40.00,24,14,27,0.00
2013-9-13,81,71,63,60,58,56,88,66,42,0.00,40.00,29,24,34,0.00
2013-9-16,65,61,56,52,51,50,83,69,60,0.00,40.00,36,31,42,0.00
2013-9-17,63,56,52,51,47,39,91,74,41,0.00,40.00,38,27,46,0.00
2013-9-18,56,52,51,47,45,41,85,76,59,0.00,40.00,32,22,39,0.00
2013-9-19,74,60,48,44,40,35,81,50,24,0.00,40.00,15,7,20,0.00
2013-9-20,73,64,54,51,39,35,64,41,25,0.00,40.00,33,12,44,0.00
2013-9-23,58,53,49,50,48,45,97,83,65,0.00,40.00,21,14,25,0.00
2013-9-25,56,48,44,44,42,41,94,79,58,0.00,40.00,29,22,35,0.00
2013-9-26,59,49,43,43,42,40,97,76,49,0.00,40.00,25,22,29,0.00
2013-9-27,54,49,46,48,46,43,97,90,65,0.00,40.00,27,12,30,0.00
2013-9-28,64,53,46,54,46,-100,97,85,61,0.00,40.00,32,8,39,0.00
2013-9-29,52,48,45,48,45,41,95,86,71,0.00,40.00,22,9,29,0.00
2013-9-30,55,48,46,47,42,37,89,77,59,0.00,40.00,38,21,51,0.00
2013-10-1,48,44,42,43,42,41,97,90,79,0.00,40.00,16,14,19,0.00
2013-10-2,51,43,39,44,41,38,98,91,63,0.00,40.00,24,10,29,0.00
2013-10-3,55,46,40,41,39,38,96,77,54,0.00,40.00,24,18,29,0.00
2013-10-4,61,48,37,42,38,35,98,70,41,0.00,40.00,12,8,14,0.00
2013-10-5,66,53,43,42,36,32,73,54,28,0.00,40.00,12,6,15,0.00
2013-10-6,68,56,45,41,38,35,78,52,31,0.00,40.00,21,8,24,0.00
2013-10-7,55,50,45,48,43,38,97,80,53,0.00,40.00,27,20,36,0.00
2013-10-8,48,45,40,46,41,38,97,86,79,0.00,40.00,41,17,47,0.00
2013-10-9,54,44,35,49,41,35,100,89,66,0.00,40.00,18,6,19,0.00
2013-10-10,55,47,41,44,41,33,94,80,46,0.00,40.00,35,23,41,0.00
2013-10-11,53,47,42,44,41,37,96,81,58,0.00,40.00,23,16,28,0.00
2013-10-12,49,44,43,43,38,-100,96,85,75,0.00,40.00,22,15,25,0.00
2013-10-13,61,48,38,46,40,35,99,76,40,0.00,40.00,10,7,11,0.00
2013-10-18,61,55,49,38,35,33,62,47,38,0.00,40.00,10,7,13,0.00
2013-10-19,65,52,41,44,35,-100,83,57,40,0.00,40.00,12,7,15,0.00
2013-10-20,68,57,44,46,41,36,86,58,31,0.00,40.00,7,5,8,0.00
2013-10-21,67,62,54,43,40,39,60,45,36,0.00,40.00,11,8,14,0.00
2013-10-22,66,57,54,43,37,-100,62,51,40,0.00,40.00,10,7,13,0.00
2013-10-23,64,58,52,45,44,41,70,59,48,0.00,40.00,10,7,13,0.00
2013-10-24,65,58,52,46,44,43,70,59,47,0.00,40.00,7,5,11,0.00
2013-10-25,65,53,44,48,44,42,94,73,48,0.00,40.00,9,5,10,0.00
2013-10-26,58,49,41,50,41,-100,98,80,65,0.00,40.00,10,5,10,0.00
2013-10-27,48,45,42,45,42,39,98,90,72,0.00,40.00,40,19,48,0.00
2013-10-28,52,44,40,40,25,-100,76,53,36,0.00,40.00,10,5,14,0.00
2013-10-29,51,43,36,29,23,19,67,44,33,0.00,40.00,12,6,13,0.00
2013-10-30,53,42,33,33,30,24,86,62,35,0.00,40.00,34,20,41,0.00
2013-10-31,53,48,45,47,43,34,89,80,59,0.00,40.00,31,19,40,0.00
2013-11-1,59,50,41,46,42,39,98,78,51,0.00,40.00,25,10,29,0.00
2013-11-2,50,43,35,45,36,-100,98,82,61,0.00,40.00,41,20,58,0.00
2013-11-3,42,38,35,37,35,30,99,89,63,0.00,40.00,36,20,44,0.00
2013-11-4,42,37,35,39,33,-100,99,92,88,0.00,40.00,24,10,29,0.00
2013-11-5,46,42,37,45,40,36,98,94,86,0.00,40.00,29,10,36,0.00
2013-11-6,45,42,39,43,42,39,99,97,91,0.00,40.00,15,9,19,0.00
2013-11-7,45,40,38,43,36,-100,100,91,77,0.00,40.00,27,13,41,0.00
2013-11-8,45,42,40,41,40,38,96,89,77,0.00,40.00,19,11,25,0.00
2013-11-9,43,39,37,40,35,-100,98,90,85,0.00,40.00,10,5,14,0.00
2013-11-10,48,42,39,41,39,38,95,86,71,0.00,40.00,7,4,10,0.00
2013-11-11,43,41,40,41,40,39,98,93,89,0.00,40.00,11,8,12,0.00
2013-11-12,49,45,41,46,43,39,98,91,83,0.00,40.00,15,7,19,0.00
2013-11-13,52,46,43,47,43,38,98,88,59,0.00,40.00,28,15,32,0.00
2013-11-14,45,41,38,39,38,36,100,87,73,0.00,40.00,32,23,41,0.00
2013-11-15,43,40,39,37,35,32,90,80,70,0.00,40.00,36,23,49,0.00
2013-11-16,43,38,36,41,33,-100,97,88,80,0.00,40.00,33,18,46,0.00
2013-11-17,48,43,38,42,40,37,98,91,76,0.00,40.00,16,7,21,0.00
2013-11-19,49,45,35,47,43,30,97,91,79,0.00,40.00,37,16,42,0.00
2013-11-20,38,32,26,30,20,8,90,62,37,0.00,40.00,31,14,37,0.00
2013-11-21,33,26,21,14,7,-100,66,49,31,0.00,40.00,12,8,15,0.00
2013-11-22,32,23,18,18,11,-100,90,66,52,0.00,40.00,12,8,17,0.00
2013-11-23,34,25,21,19,14,-100,76,68,51,0.00,40.00,11,9,14,0.00
2013-11-24,34,28,23,22,20,15,83,71,55,0.00,40.00,8,6,13,0.00
2013-11-25,38,28,26,24,15,-100,80,66,52,0.00,40.00,9,5,12,0.00
2013-11-26,38,29,28,26,19,-100,90,73,57,0.00,40.00,6,4,6,0.00
2013-11-27,35,30,26,27,26,24,97,84,69,0.00,40.00,9,6,12,0.00
2013-11-28,41,32,27,30,27,24,89,81,64,0.00,40.00,7,4,7,0.00
2013-11-29,40,34,28,38,31,26,98,86,75,0.00,40.00,21,9,25,0.00
2013-11-30,47,41,38,40,35,-100,99,84,74,0.00,40.00,23,15,25,0.00
2013-12-2,44,35,31,43,30,-100,99,89,79,0.00,40.00,39,24,48,0.00
2013-12-3,33,28,23,29,21,10,99,76,46,0.00,40.00,25,9,31,0.00
2013-12-4,27,21,16,13,11,9,82,64,52,0.00,40.00,10,6,12,0.00
2013-12-5,20,15,12,16,12,7,95,85,72,0.00,40.00,14,7,16,0.00
2013-12-6,16,14,12,14,12,10,96,93,90,0.00,40.00,12,8,16,0.00
2013-12-7,14,9,4,11,0,-100,93,73,60,0.00,40.00,16,9,16,0.00
2013-12-8,13,8,2,2,-1,-6,80,66,52,0.00,40.00,6,3,6,0.00
2013-12-9,30,19,7,27,14,1,90,82,68,0.00,40.00,26,14,32,0.00
2013-12-10,33,28,21,30,23,-100,99,90,86,0.00,40.00,31,16,37,0.00
2013-12-11,25,21,18,21,18,15,96,87,77,0.00,40.00,10,6,12,0.00
2013-12-12,34,25,19,33,18,-100,95,83,70,0.00,40.00,10,4,11,0.00
2013-12-13,41,39,36,40,38,36,100,99,98,0.00,40.00,20,13,21,0.00
2013-12-19,36,30,26,28,22,14,102,74,41,0.00,40.00,21,7,24,0.00
2013-12-20,41,33,28,41,30,20,102,90,64,0.00,40.00,37,22,50,0.00
2013-12-21,43,41,41,42,37,-100,100,91,84,0.00,40.00,39,28,49,0.00
2013-12-22,46,43,40,44,42,40,101,96,91,0.00,40.00,30,25,40,0.00
2013-12-23,49,43,38,46,37,-100,99,88,71,0.00,40.00,38,20,50,0.00
2013-12-24,43,36,32,35,32,31,101,87,64,0.00,40.00,17,8,20,0.00
2013-12-25,37,32,29,33,30,28,99,90,74,0.00,40.00,8,3,9,0.00
2013-12-26,40,32,27,33,29,27,103,92,70,0.00,40.00,6,3,7,0.00
2013-12-27,40,31,26,39,30,26,101,97,83,0.00,40.00,33,9,37,0.00
2013-12-28,45,36,32,38,30,-100,102,89,71,0.00,40.00,31,13,36,0.00
2013-12-29,40,34,29,33,31,29,103,91,68,0.00,40.00,21,10,27,0.00
2013-12-30,37,31,27,36,30,27,103,99,80,0.00,40.00,20,8,20,0.00
2013-12-31,45,42,39,38,34,31,94,76,63,0.00,40.00,26,19,34,0.00
2014-1-1,39,36,31,38,36,31,103,101,92,0.00,40.00,10,6,11,0.00
2014-1-2,45,35,29,43,33,29,104,95,70,0.00,40.00,30,7,38,0.00